Clovis Cannon AFB, NM

8:31 PM MDT on May 23, 2017 (GMT -0600)
Cannon Air Force Base

Weather History for KCVS - November, 2012

Change the Weather History Date:

Monday, November 19, 2012

  Actual Average Record
Temperature  
Mean Temperature 54 °F -  
Max Temperature 68 °F 57 °F 82 °F (1996)
Min Temperature 39 °F 33 °F 24 °F (2000)
Degree Days  
Heating Degree Days 12    
Growing Degree Days 4 (Base 50)    
Moisture  
Dew Point 36 °F    
Average Humidity 76    
Maximum Humidity 100    
Minimum Humidity 14    
Precipitation  
Precipitation 0.00 in - - ()
Sea Level Pressure  
Sea Level Pressure 30.15 in    
Wind  
Wind Speed 9 mph (SW)    
Max Wind Speed 16 mph    
Max Gust Speed -    
Visibility 6 miles    
Events Fog    
Averages and records for this station are not official NWS values.
T = Trace of Precipitation, MM = Missing Value Source: NWS Daily Summary

Daily Weather History Graph

Daily Weather History Graph

Search for Another Location

Airport or City:

Trip Planner

Search our weather history database for the weather conditions in past years. The results will help you decide how hot, cold, wet, or windy it might be!

Date:

Astronomy

Nov. 19, 2012 Rise Set
Actual Time 6:30 AM MST 4:46 PM MST
Civil Twilight 6:03 AM MST 5:13 PM MST
Nautical Twilight 5:33 AM MST 5:43 PM MST
Astronomical Twilight 5:03 AM MST 6:13 PM MST
Moon 11:40 AM MST (11/19) 11:08 PM MST (11/19)
Length of Visible Light 11h 09m
Length of Day
10h 15m
Waxing Crescent, 41% of the Moon is Illuminated
Nov 19
Waxing Crescent
Nov 20
First Quarter
Nov 28
Full
Dec 6
Last Quarter
Dec 13
New

Hourly Weather History & Observations

Time (MST) Temp. Windchill Dew Point Humidity Pressure Visibility Wind Dir Wind Speed Gust Speed Precip Events Conditions
12:38 AM 48.2 °F - 48.2 °F 100% 30.15 in 4.0 mi SSW 11.5 mph - N/A   Overcast
12:43 AM 48.2 °F - 48.2 °F 100% 30.15 in 3.0 mi SSW 11.5 mph - N/A   Overcast
12:48 AM 48.2 °F - 48.2 °F 100% 30.14 in 2.0 mi SSW 11.5 mph - N/A   Overcast
12:53 AM 48.2 °F - 48.2 °F 100% 30.14 in 1.0 mi SSW 10.4 mph - N/A   Mist
12:58 AM 48.4 °F - 48.4 °F 100% 30.07 in 0.5 mi SSW 10.4 mph - N/A Fog Fog
1:03 AM 48.2 °F - 48.2 °F 100% 30.14 in 0.5 mi SSW 9.2 mph - N/A Fog Fog
1:18 AM 48.2 °F - 48.2 °F 100% 30.14 in 0.2 mi SW 8.1 mph - N/A Fog Fog
1:38 AM 46.4 °F 41.9 °F 46.4 °F 100% 30.13 in 0.5 mi SSW 9.2 mph - N/A Fog Fog
1:48 AM 46.4 °F 42.9 °F 46.4 °F 100% 30.13 in 0.8 mi Variable 6.9 mph - N/A   Mist
1:58 AM 45.3 °F 42.3 °F 45.3 °F 100% 30.05 in 0.5 mi SSW 5.8 mph - N/A Fog Fog
2:23 AM 42.8 °F 38.6 °F 42.8 °F 100% 30.14 in 0.5 mi SSW 6.9 mph - N/A Fog Fog
2:28 AM 42.8 °F 38.0 °F 42.8 °F 100% 30.14 in 1.8 mi SSW 8.1 mph - N/A   Partly Cloudy
2:33 AM 42.8 °F 39.3 °F 42.8 °F 100% 30.14 in 5.0 mi SSW 5.8 mph - N/A   Clear
2:38 AM 41.0 °F 35.8 °F 41.0 °F 100% 30.15 in 1.2 mi SW 8.1 mph - N/A   Clear
2:43 AM 41.0 °F 35.8 °F 41.0 °F 100% 30.15 in 0.8 mi SW 8.1 mph - N/A   Clear
2:53 AM 39.2 °F 33.6 °F 39.2 °F 100% 30.15 in 1.5 mi SW 8.1 mph - N/A   Clear
2:58 AM 39.9 °F 34.5 °F 39.9 °F 100% 30.08 in 3.0 mi SW 8.1 mph - N/A   Clear
3:03 AM 41.0 °F 35.2 °F 41.0 °F 100% 30.15 in 5.0 mi SSW 9.2 mph - N/A   Clear
3:08 AM 41.0 °F 35.8 °F 41.0 °F 100% 30.16 in 3.0 mi SW 8.1 mph - N/A   Clear
3:13 AM 39.2 °F 33.6 °F 39.2 °F 100% 30.16 in 1.5 mi SW 8.1 mph - N/A   Clear
3:18 AM 39.2 °F 33.0 °F 39.2 °F 100% 30.16 in 2.0 mi SSW 9.2 mph - N/A   Clear
3:23 AM 41.0 °F 35.8 °F 41.0 °F 100% 30.15 in 6.0 mi SSW 8.1 mph - N/A   Clear
3:28 AM 41.0 °F 35.8 °F 41.0 °F 100% 30.15 in 10.0 mi SSW 8.1 mph - N/A   Clear
3:58 AM 42.6 °F 37.2 °F 42.6 °F 100% 30.09 in 10.0 mi SW 9.2 mph - N/A   Clear
4:58 AM 44.2 °F 38.4 °F 44.2 °F 100% 30.08 in 10.0 mi SW 11.5 mph - N/A   Clear
5:58 AM 43.0 °F 37.7 °F 43.0 °F 100% 30.10 in 10.0 mi WSW 9.2 mph - N/A   Clear
6:58 AM 41.5 °F 33.5 °F 41.5 °F 100% 30.12 in 10.0 mi SW 16.1 mph - N/A   Clear
7:58 AM 44.6 °F 38.1 °F 44.6 °F 100% 30.26 in 10.0 mi WSW 13.8 mph - N/A   Clear
8:55 AM 46.4 °F 41.5 °F 46.4 °F 100% 30.20 in 10.0 mi WSW 10.4 mph - N/A   Clear
9:55 AM 53.6 °F - 39.2 °F 58% 30.25 in 10.0 mi West 10.4 mph - N/A   Clear
10:55 AM 62.6 °F - 26.6 °F 26% 30.22 in 10.0 mi Variable 6.9 mph - N/A   Clear
11:55 AM 64.4 °F - 26.6 °F 24% 30.19 in 10.0 mi NW 8.1 mph - N/A   Clear
12:55 PM 66.2 °F - 23.0 °F 19% 30.17 in 10.0 mi Variable 5.8 mph - N/A   Clear
1:58 PM 68.0 °F - 21.9 °F 17% 30.08 in 10.0 mi Variable 6.9 mph - N/A   Clear
2:58 PM 67.8 °F - 20.8 °F 17% 30.09 in 10.0 mi WNW 6.9 mph - N/A   Clear
3:58 PM 66.9 °F - 16.5 °F 14% 30.10 in 10.0 mi Variable 5.8 mph - N/A   Clear
4:58 PM 61.9 °F - 19.8 °F 20% 30.13 in 10.0 mi North 4.6 mph - N/A   Clear
5:58 PM 52.5 °F - 20.7 °F 29% 30.21 in 10.0 mi Variable 5.8 mph - N/A   Clear
6:58 PM 50.7 °F - 19.8 °F 30% 30.22 in 10.0 mi Variable 6.9 mph - N/A   Clear
7:58 PM 48.4 °F - 18.5 °F 31% 30.23 in 10.0 mi North 6.9 mph - N/A   Clear
8:58 PM 45.0 °F 41.8 °F 19.6 °F 36% 30.24 in 10.0 mi Variable 5.8 mph - N/A   Clear
9:58 PM 43.5 °F 39.4 °F 19.2 °F 38% 30.23 in 10.0 mi Variable 6.9 mph - N/A   Clear
10:58 PM 39.6 °F 33.5 °F 18.0 °F 42% 30.23 in 10.0 mi North 9.2 mph - N/A   Clear
11:58 PM 41.5 °F 37.8 °F 19.2 °F 41% 30.24 in 5.0 mi North 5.8 mph - N/A   Haze